Dewpoint
72 73 74 73 74 73 75 74 74 74 73 73 71 68 71 71 69 71 70 71 71 71 74 73 71 72 73 73 73 73 73 74 75 75 75 75 73 73 73 73 73 72 72
73 74 72 73 71 70 73 73 72 73 72 74 72 71 69 68 71 71 71 71 72 74 71 71 71 72 73 72 72 71 71 73 73 74 74 74 74 73 74 74 72 71 72
74 71 71 71 69 70 73 74 73 72 71 69 69 68 68 70 71 73 73 72 73 73 71 71 73 73 73 72 72 71 71 70 69 73 73 73 73 73 73 73 73 72 71
75 71 72 70 71 73 72 71 71 70 69 68 68 68 66 71 73 72 73 74 73 73 71 73 72 71 73 72 72 71 70 68 71 73 73 72 72 73 73 73 73 72 71
74 73 69 68 73 74 73 72 68 72 71 69 69 67 67 69 70 73 73 72 70 72 71 72 71 71 72 72 71 71 69 69 70 69 71 73 73 73 73 73 73 72 72
74 74 74 73 73 74 72 71 72 72 72 72 71 70 70 70 70 71 71 66 68 69 70 71 70 70 70 71 71 71 70 68 68 68 69 73 72 72 72 73 73 72 71
68 70 73 73 73 72 73 73 73 72 71 72 70 69 69 69 69 68 65 64 66 68 68 68 69 69 69 70 70 70 70 70 70 69 69 71 72 71 72 72 73 71 71
71 71 70 74 74 74 74 71 69 72 71 72 69 67 64 65 67 64 64 65 65 65 66 68 68 67 68 68 69 69 69 70 70 69 67 69 70 71 71 71 72 71 71
70 70 70 73 74 75 73 71 71 71 69 71 71 68 64 63 65 66 64 65 64 63 65 66 67 67 68 68 69 69 68 70 69 69 66 65 68 70 71 72 71 71 71
70 70 71 73 74 75 73 74 75 73 71 69 71 72 69 68 65 64 64 63 64 63 63 66 66 67 68 68 69 69 69 70 70 69 68 65 65 68 69 71 72 72 71
73 72 73 75 76 76 76 75 74 74 73 72 72 71 69 69 68 66 65 63 63 63 64 65 66 66 66 66 67 68 69 69 68 68 67 65 64 65 68 69 71 72 71
72 73 72 73 74 75 75 73 73 73 73 73 73 71 69 68 67 66 66 63 60 62 65 66 66 65 66 66 68 68 69 68 69 68 66 66 64 63 64 67 70 70 71
68 72 73 73 73 74 74 73 73 72 73 72 71 70 71 69 68 67 64 64 60 62 64 65 65 65 66 66 66 67 68 68 68 67 67 66 66 64 63 65 67 70 70
71 70 69 70 70 70 71 73 73 72 72 72 71 71 71 70 69 68 65 63 61 62 63 63 66 64 64 64 66 67 66 67 67 66 66 66 65 66 66 66 66 67 70
71 70 71 70 71 70 72 73 72 72 73 73 73 72 72 71 71 70 67 65 62 60 60 62 61 65 62 62 64 63 63 66 66 65 65 65 65 64 64 65 66 66 68
72 72 71 71 72 73 73 72 72 74 73 74 74 72 72 72 71 70 69 68 64 63 60 62 64 64 61 61 64 62 63 64 65 64 64 65 64 63 64 64 64 66 67
73 72 72 73 73 74 74 74 74 74 74 73 73 72 72 72 71 70 69 69 65 64 60 62 64 61 59 61 60 61 62 60 62 64 64 64 63 64 65 65 64 65 68
73 73 74 75 75 75 74 75 73 73 72 73 73 73 71 73 71 70 69 66 65 63 62 60 61 60 59 59 59 59 59 59 59 61 64 64 64 64 63 64 63 64 64
73 74 75 75 75 75 75 75 73 72 72 73 72 71 69 69 70 70 67 65 65 64 63 61 60 60 60 59 59 59 58 57 58 61 63 64 63 63 62 62 61 62 61
74 74 75 76 76 76 75 72 71 71 73 71 71 70 69 69 70 68 66 65 64 62 61 61 59 59 58 58 59 58 57 57 56 57 61 61 62 62 62 62 62 62 62
75 76 75 75 75 71 71 70 71 71 70 71 71 69 68 70 70 68 66 65 64 60 61 60 58 58 58 57 57 58 56 57 55 55 55 57 58 58 59 62 62 62 62
75 75 75 75 70 69 64 66 68 70 71 70 69 68 68 68 68 67 66 65 63 60 60 59 58 58 58 58 58 58 57 56 54 59 55 55 58 57 58 59 62 61 61
75 76 75 75 67 64 62 63 66 68 70 68 67 69 67 66 65 64 64 64 62 62 62 62 59 59 58 59 59 57 56 57 57 58 58 55 58 57 59 60 61 60 60
75 75 76 71 66 62 60 59 62 67 69 68 69 69 68 66 64 63 62 62 59 59 59 60 60 60 60 61 60 59 58 59 59 59 59 55 58 57 58 58 60 60 59
75 75 74 69 65 61 58 58 60 69 68 66 65 64 69 66 63 63 63 61 59 58 60 60 62 62 62 62 61 60 58 57 56 57 60 58 57 57 57 57 58 60 59
75 75 72 69 64 62 56 56 58 70 68 66 61 62 64 64 61 62 62 61 58 58 60 61 61 61 61 61 62 60 59 57 57 56 60 58 57 57 55 58 57 57 56
Lifted_Index
-2 -3 -3 -3 -4 -4 -4 -3 -3 -3 -3 -3 -3 -3 -3 -3 -3 -2 -2 -1 -1 -2 -2 -2 -2 -2 -2 -2 -2 -2 -3 -3 -4 -5 -5 -5 -5 -5 -5 -5 -5 -4 -4
-3 -3 -3 -3 -3 -3 -4 -4 -4 -3 -4 -3 -3 -3 -3 -3 -3 -3 -2 -1 -2 -2 -2 -1 -2 -2 -2 -2 -2 -2 -2 -2 -3 -4 -4 -4 -5 -5 -5 -5 -5 -4 -4
-3 -2 -2 -2 -2 -2 -3 -4 -4 -4 -3 -3 -3 -3 -3 -4 -4 -3 -2 -2 -2 -2 -1 -1 -2 -2 -2 -2 -2 -1 -1 -1 -2 -3 -3 -4 -4 -4 -5 -5 -5 -4 -4
-3 -2 -1 -1 -1 -2 -2 -3 -3 -4 -3 -3 -2 -2 -2 -3 -4 -3 -3 -2 -1 -1 -1 -1 -1 -2 -2 -2 -1 -1 -0 -0 -1 -2 -2 -3 -3 -4 -5 -5 -5 -4 -4
-3 -2 -1 -1 -2 -2 -2 -2 -3 -4 -4 -3 -3 -2 -2 -3 -3 -3 -3 -1 -0 0 0 -0 -1 -1 -1 -1 -1 -1 -0 -0 -1 -1 -2 -3 -3 -4 -5 -5 -6 -5 -4
-2 -2 -2 -2 -2 -3 -3 -3 -3 -4 -4 -4 -3 -3 -2 -2 -2 -2 -2 -1 0 1 1 1 1 0 -0 -1 -0 -0 -0 0 0 -0 -1 -3 -3 -4 -5 -5 -6 -5 -4
-1 -2 -2 -2 -3 -3 -4 -4 -4 -4 -4 -4 -4 -3 -3 -2 -2 -2 -2 -1 -0 0 1 2 2 2 1 0 0 0 0 0 0 -0 -1 -2 -3 -3 -4 -5 -6 -5 -5
-1 -2 -2 -3 -4 -4 -4 -4 -4 -3 -3 -4 -4 -3 -3 -2 -2 -2 -2 -1 -1 -0 1 2 3 3 2 1 1 1 0 -0 -0 0 0 -1 -2 -3 -4 -5 -6 -6 -5
-1 -2 -3 -4 -4 -5 -5 -4 -4 -4 -3 -3 -4 -4 -3 -3 -3 -3 -2 -1 -1 -0 1 2 2 2 2 2 1 1 0 -1 -1 -0 0 0 -1 -3 -4 -5 -6 -6 -6
-2 -2 -3 -4 -5 -5 -5 -5 -5 -4 -4 -4 -4 -4 -4 -3 -3 -3 -2 -1 -1 -0 1 2 2 2 2 1 1 0 -1 -1 -1 -1 0 1 -0 -2 -4 -5 -6 -6 -6
-3 -3 -4 -5 -5 -5 -5 -5 -5 -4 -4 -4 -4 -4 -3 -3 -2 -2 -2 -1 -1 0 1 2 2 2 1 1 0 -1 -1 -2 -2 -1 -0 0 -0 -1 -3 -4 -5 -5 -5
-3 -4 -4 -5 -5 -5 -5 -5 -4 -4 -4 -4 -4 -3 -3 -2 -2 -1 -1 -1 -0 1 2 2 2 2 1 1 -0 -1 -2 -2 -2 -2 -1 -1 -1 -1 -2 -4 -5 -5 -5
-4 -4 -4 -4 -5 -5 -5 -4 -4 -4 -4 -4 -3 -3 -3 -2 -2 -1 -1 -1 -0 1 1 2 2 2 2 1 -0 -1 -2 -2 -2 -2 -2 -2 -2 -2 -2 -3 -4 -5 -5
-4 -4 -4 -4 -4 -4 -4 -4 -4 -4 -4 -4 -3 -3 -3 -3 -2 -2 -1 -1 -0 0 1 2 2 2 2 1 1 -0 -1 -2 -2 -2 -2 -2 -2 -2 -2 -2 -3 -4 -4
-4 -4 -4 -4 -4 -4 -4 -4 -4 -4 -4 -4 -4 -4 -3 -3 -3 -3 -2 -1 -1 -0 0 1 2 2 2 2 2 1 -0 -1 -1 -1 -1 -1 -1 -1 -1 -1 -1 -2 -3
-5 -5 -5 -5 -5 -5 -5 -5 -5 -5 -5 -5 -4 -4 -4 -4 -3 -3 -2 -1 -1 -0 0 1 2 2 2 3 2 2 1 1 0 0 0 0 0 0 0 0 -0 -1 -2
-5 -5 -5 -6 -6 -6 -6 -6 -5 -5 -5 -4 -4 -4 -4 -4 -3 -2 -2 -1 -0 -0 1 1 2 3 3 3 3 3 3 2 2 2 1 1 1 1 1 1 0 -0 -2
-5 -5 -6 -6 -7 -7 -7 -6 -6 -5 -4 -4 -4 -3 -3 -3 -3 -2 -1 -1 -0 0 1 2 3 3 4 4 4 4 4 4 4 3 2 1 1 1 1 1 1 0 -0
-5 -6 -6 -7 -7 -7 -7 -6 -5 -5 -4 -4 -3 -2 -2 -2 -2 -2 -1 -1 0 1 2 3 4 4 4 4 4 4 4 5 5 4 3 2 2 2 2 2 2 1 1
-5 -6 -6 -7 -7 -7 -6 -6 -5 -4 -3 -3 -2 -2 -1 -1 -2 -2 -1 -0 1 2 3 3 4 4 4 4 4 4 5 5 5 5 4 3 3 3 3 3 2 2 2
-6 -6 -7 -7 -7 -7 -6 -5 -4 -3 -3 -2 -2 -1 -0 -1 -1 -1 -1 0 2 3 3 4 4 4 4 4 4 4 4 5 5 5 5 5 5 5 4 4 3 3 3
-6 -6 -7 -7 -7 -6 -6 -4 -3 -3 -3 -2 -1 -0 -0 -0 -1 -0 0 1 3 4 4 4 4 4 4 4 4 4 4 4 5 5 5 5 5 5 5 5 4 4 4
-7 -7 -7 -7 -7 -6 -5 -4 -3 -3 -2 -1 -0 -0 0 -0 -0 0 1 2 4 4 4 4 3 4 4 4 3 4 4 4 4 4 4 5 5 5 5 5 5 5 5
-7 -7 -7 -7 -7 -6 -5 -4 -3 -2 -1 -0 -0 0 0 0 0 0 1 2 3 4 4 4 3 3 4 3 4 4 4 4 4 4 4 4 4 5 5 5 6 6 6
-8 -7 -7 -7 -6 -6 -4 -3 -2 -2 -1 -0 0 0 0 0 0 0 1 2 3 5 4 4 3 3 3 4 4 4 5 5 5 5 5 5 5 5 5 5 6 7 8
-8 -8 -8 -7 -6 -5 -4 -3 -2 -2 -1 -0 0 0 0 0 0 0 1 2 4 5 5 4 3 3 4 4 4 5 5 5 5 5 5 5 6 6 6 6 6 8 8